{"data":{"norad_id":66500,"intl_designator":"2025-263R","name":"STARLINK-35894","alt_names":[],"object_type":"PAYLOAD","status":"ACTIVE","operator":null,"country":"US","launch_date":"2025-11-15","launch_site_code":"AFETR","launch_vehicle":null,"mission":null,"orbit_class":"UNKNOWN","rcs_meters":null,"size_class":null,"mass_kg":null,"dimensions":null,"purposes":["comms"],"wikipedia_slug":null,"has_3d_model":false,"image_url":null,"decayed_at":null,"tle_current":{"epoch":"2026-09-20T12:05:59.343648Z","epoch_age_seconds":89318,"freshness":"FRESH","line1":"1 66500U 25263R   26263.50415907  .00014369  00000+0  53054-3 0  9997","line2":"2 66500  42.9981 333.9175 0000890 276.7974  83.2777 15.27587340 48651","mean_motion":15.2758734,"eccentricity":8.9e-5,"inclination_deg":42.9981,"raan_deg":333.9175,"arg_perigee_deg":276.7974,"mean_anomaly_deg":83.2777,"bstar":0.00053054,"rev_number":4865,"period_min":94.266295765452,"perigee_km":482.41647392065,"apogee_km":483.63776113357,"semimajor_km":6861.1641175271,"source":"CELESTRAK","updated_at":"2026-09-21T09:00:35.922085Z"}}}